Lapse_Rate
5.9 6.2 6.2 6.1 5.8 6.7 6.8 7.1 7.3 7.2 6.8 6.6 6.4 6.8 6.7 6.3 6.1 6.2 6.3 6.2 6.2 6.1 6.1 6.4 6.1 6.0 6.2 6.2 6.0 5.8 5.7 5.7 5.7 5.6 5.5 5.6 5.6 5.5 5.5 5.5 5.4 5.5 5.7 5.8 5.9 5.8 5.6 5.7 5.7
5.7 6.1 6.0 5.5 6.2 6.7 6.3 6.8 6.5 6.5 6.6 6.5 6.4 6.7 6.9 6.1 6.3 6.3 6.5 6.3 6.4 6.2 6.1 6.3 6.0 6.1 6.1 6.1 6.1 5.9 5.7 5.7 5.8 5.7 5.6 5.7 5.6 5.6 5.6 5.6 5.6 5.6 5.6 5.7 5.9 5.9 6.0 6.0 5.7
6.3 6.2 5.6 6.0 6.5 6.1 5.7 6.4 6.6 6.3 6.3 6.7 6.6 6.6 6.5 5.9 5.8 5.5 6.3 6.3 6.3 6.1 5.8 6.2 6.2 6.1 6.0 6.3 6.1 5.9 5.7 5.8 5.8 5.7 5.6 5.7 5.7 5.7 5.7 5.7 5.9 5.8 5.7 5.7 5.7 6.0 6.1 6.0 5.8
6.4 5.9 5.8 6.1 6.4 6.0 6.1 5.7 6.2 6.1 6.3 6.5 6.8 6.3 6.0 6.1 5.4 5.9 6.3 6.3 6.3 6.1 5.7 5.8 6.1 6.1 6.2 6.1 6.0 6.0 6.0 5.9 5.9 5.6 5.6 5.9 5.8 5.7 5.7 5.7 5.8 5.8 5.8 5.6 5.6 5.8 5.9 5.7 5.8
6.2 6.1 6.0 6.2 6.0 5.9 5.8 6.1 6.3 6.3 6.5 6.7 6.8 6.3 5.5 5.9 5.4 5.9 6.1 6.2 6.3 6.0 6.0 5.9 6.2 6.1 6.1 6.1 6.1 5.9 5.9 5.9 5.9 5.7 5.8 5.8 5.9 5.7 5.8 5.8 5.9 5.9 5.8 5.6 5.4 5.6 5.5 5.6 5.8
6.3 6.6 7.3 6.9 6.2 6.1 5.9 6.4 6.4 6.4 6.5 6.3 6.5 6.2 5.3 5.7 5.7 5.6 5.6 6.0 5.4 5.5 5.6 6.1 6.2 6.1 6.0 6.0 6.1 5.9 6.0 6.0 5.7 5.9 5.9 5.7 5.6 5.6 5.8 5.9 5.8 5.8 5.7 5.7 5.5 5.5 5.6 5.9 5.8
6.3 6.7 7.2 7.4 6.9 6.4 6.0 6.1 6.1 6.4 6.1 6.6 6.4 5.6 5.2 5.0 5.7 5.3 5.5 5.7 5.6 5.3 5.9 6.0 6.1 6.1 5.9 6.1 6.1 6.0 6.0 5.8 5.7 5.7 5.5 5.7 5.5 5.6 5.8 5.8 5.8 5.6 5.6 5.6 5.5 5.4 5.7 5.7 5.7
6.2 6.5 7.6 7.0 7.0 6.1 6.0 5.7 5.9 6.0 5.2 6.2 6.3 6.2 5.5 5.1 5.0 5.1 5.5 5.4 5.3 5.2 5.9 6.0 6.0 5.7 5.7 6.0 5.8 6.0 5.9 5.7 5.7 5.5 5.3 5.4 5.5 5.5 5.9 6.0 5.7 5.8 5.6 5.6 5.5 5.4 5.4 5.4 5.5
6.2 6.9 7.0 6.6 6.2 5.7 5.6 5.5 5.9 6.0 5.9 6.3 6.1 6.2 5.5 6.0 5.3 5.2 5.1 5.2 5.7 6.0 5.8 5.9 5.9 5.9 5.9 5.9 5.9 5.9 5.8 5.7 5.4 5.4 5.2 5.5 5.4 5.6 5.8 5.7 5.8 5.5 5.5 5.5 5.4 5.5 5.4 5.5 5.3
6.6 6.9 6.6 6.4 6.1 5.7 5.8 5.6 5.5 5.8 6.0 5.9 6.0 5.5 5.3 5.8 5.2 5.3 5.5 5.4 6.0 5.9 5.4 5.5 5.6 5.7 5.9 5.8 5.8 5.8 5.7 5.5 5.4 5.4 5.4 5.5 5.0 5.5 5.2 5.7 5.5 5.5 5.2 5.3 5.3 5.3 5.5 5.2 5.4
6.3 6.4 6.3 6.2 5.7 5.7 5.7 5.6 5.8 5.8 6.1 5.5 6.1 5.4 5.1 5.0 5.1 5.8 5.4 5.0 5.0 5.0 5.2 5.1 5.6 5.7 5.6 5.9 5.8 5.8 5.7 5.7 5.5 5.5 5.6 5.5 5.5 5.5 5.6 5.5 5.4 5.4 5.3 5.1 5.0 4.9 5.4 5.6 5.2
6.6 6.4 6.2 6.0 6.0 5.5 5.7 5.6 6.1 5.3 5.4 6.1 6.1 5.4 5.2 5.2 5.2 5.4 5.4 5.4 4.9 5.4 5.6 5.6 5.6 5.5 5.5 5.7 5.7 5.7 5.6 5.5 5.3 5.5 5.5 5.5 5.8 5.4 5.2 5.1 5.6 5.3 5.2 5.0 4.6 4.7 5.1 5.5 5.7
6.7 6.6 6.4 5.9 6.0 5.5 5.4 5.4 6.0 6.0 5.9 5.7 5.8 5.2 5.3 5.3 5.1 5.3 5.4 5.1 5.4 5.4 5.4 5.2 5.7 5.5 5.3 5.6 5.6 5.8 5.3 5.3 5.4 5.4 5.4 5.2 4.9 5.0 5.0 5.4 5.1 5.3 5.2 5.1 5.0 5.0 5.2 5.3 5.5
6.7 6.8 6.6 6.1 6.1 5.7 5.4 5.4 6.0 6.0 6.0 5.7 5.4 5.4 5.5 5.5 5.3 5.1 5.2 5.0 5.0 5.3 5.2 5.1 5.5 5.4 5.3 5.4 5.4 5.5 5.2 5.3 5.2 5.3 5.5 5.5 5.1 5.2 5.1 5.4 5.2 5.5 5.4 5.4 5.5 5.4 5.3 5.3 5.5
7.1 7.2 7.2 6.8 6.2 5.9 5.6 5.7 6.3 5.3 6.0 6.0 5.7 5.6 5.6 5.6 5.5 5.3 5.0 5.2 4.8 5.1 5.4 5.4 5.6 5.5 5.2 5.3 5.2 5.1 4.9 4.9 5.0 5.1 5.7 5.6 5.6 5.2 5.2 5.4 5.3 5.2 5.4 5.6 5.7 5.7 5.5 5.2 5.5
7.6 7.7 8.6 7.4 6.7 6.2 6.0 6.2 6.3 6.2 5.8 6.2 6.0 5.8 5.7 5.5 5.4 5.2 5.1 4.8 5.0 5.1 5.5 5.4 5.2 5.5 5.4 5.4 5.1 4.9 4.5 4.7 4.6 5.1 5.2 5.3 5.5 5.4 5.5 5.5 5.5 5.3 5.4 5.5 5.7 5.7 5.7 5.3 5.5
8.5 9.2 8.7 8.1 7.2 6.7 6.3 6.5 5.9 6.5 6.5 6.1 6.3 6.2 5.8 5.5 5.4 5.5 5.4 5.0 5.1 4.9 5.1 5.5 5.4 5.5 5.4 5.4 5.2 4.9 4.6 4.7 4.2 4.1 4.1 5.0 5.2 5.5 5.5 5.5 5.2 5.7 5.7 5.8 5.6 5.8 5.8 5.9 5.5
8.7 9.4 8.7 8.2 7.3 7.0 6.7 6.8 6.1 6.5 6.1 6.6 6.5 6.3 6.1 5.9 5.5 5.3 5.3 5.1 5.1 4.8 5.3 5.4 5.6 5.6 5.5 5.4 5.3 4.9 4.7 4.8 4.0 4.0 4.0 4.5 5.3 5.5 5.7 5.6 5.7 5.6 4.9 5.3 5.7 5.8 5.8 6.1 5.8
8.4 9.2 8.9 7.9 7.7 7.3 7.5 7.4 7.1 6.6 6.6 6.7 6.7 6.8 6.5 6.1 5.8 5.5 5.3 5.0 4.9 4.8 5.2 5.3 5.6 5.8 5.5 5.5 5.3 5.1 5.2 4.7 3.9 4.0 4.3 4.9 5.4 5.4 5.6 5.6 5.7 5.6 5.4 5.3 5.6 5.9 5.9 6.2 6.0
8.7 8.9 9.2 7.6 7.7 7.5 7.8 7.6 7.6 7.4 6.9 7.0 6.8 6.8 6.7 6.3 5.9 5.7 5.5 5.3 5.1 4.7 5.1 5.7 5.5 5.6 5.7 5.6 5.5 5.2 5.1 4.8 5.3 4.5 5.1 5.4 5.5 5.5 5.5 5.5 5.7 5.8 5.4 5.7 5.7 5.8 5.7 5.8 6.0
9.4 9.2 8.9 8.9 8.2 8.1 8.1 8.2 8.0 7.9 7.3 6.9 7.0 7.1 7.1 6.7 6.3 5.9 5.9 5.3 5.2 4.9 4.9 5.6 5.8 5.6 5.7 5.7 5.6 5.5 5.3 5.2 5.3 5.4 5.2 5.4 5.3 5.4 5.3 5.4 5.5 5.6 5.8 5.1 5.7 5.8 5.8 5.7 5.9
9.6 9.0 9.1 9.2 8.3 7.6 7.7 7.3 7.1 8.4 8.0 7.5 7.0 6.9 7.1 6.9 6.7 6.2 6.2 5.7 5.4 5.0 5.3 5.6 5.8 5.8 5.7 5.8 5.8 5.6 5.5 5.4 5.3 5.4 5.3 5.6 5.3 5.5 5.6 5.6 5.6 5.8 5.9 5.8 5.8 5.8 6.0 5.8 5.7
9.5 8.8 8.8 8.7 8.6 9.3 8.6 8.1 8.2 8.5 8.8 7.9 7.7 7.3 7.1 7.1 6.8 6.5 6.1 6.0 5.7 5.1 5.0 5.6 5.8 5.9 5.8 5.7 5.7 5.7 5.7 5.3 5.3 5.5 5.3 5.3 5.3 5.4 5.5 5.1 5.6 5.8 5.9 5.8 5.8 5.7 5.9 6.0 5.7
9.1 8.6 8.9 9.3 9.2 7.6 7.6 7.9 8.9 7.9 9.0 8.2 7.9 7.6 7.4 7.1 7.2 6.8 6.2 6.0 5.9 5.3 5.5 5.6 5.9 6.0 6.0 5.8 5.7 5.6 5.8 5.6 5.6 5.6 5.7 5.7 5.5 5.6 5.4 5.6 5.9 5.7 5.8 5.8 5.8 5.8 5.8 5.9 6.2
8.9 9.4 9.1 9.4 9.4 7.1 8.6 9.4 9.3 9.2 8.6 8.0 7.7 7.4 7.4 6.9 7.1 6.9 6.3 6.0 5.9 5.5 5.9 6.0 6.1 6.0 5.9 5.9 5.7 5.8 5.9 5.8 5.8 5.8 5.7 5.9 5.4 5.7 5.2 5.5 5.7 5.6 5.8 5.9 5.9 5.6 5.7 5.9 6.0
9.3 9.5 9.6 9.3 9.9 10.0 9.5 9.2 9.4 8.6 8.6 7.9 7.5 7.4 7.2 6.9 6.9 6.7 6.4 5.9 5.7 6.0 6.2 6.0 6.1 6.1 6.0 5.9 5.8 5.8 5.8 5.8 5.8 5.9 5.7 5.7 5.8 5.1 5.2 5.7 5.6 5.7 5.7 5.9 5.9 5.9 5.9 5.9 6.1
9.6 9.6 9.6 9.7 9.6 9.8 9.5 8.7 8.3 8.3 8.6 8.2 7.6 7.3 7.1 6.9 6.8 6.6 6.5 6.0 5.8 6.3 6.4 6.3 6.0 6.1 6.1 6.0 5.9 5.8 5.7 5.7 5.8 5.9 5.7 5.7 5.9 5.7 5.5 5.7 5.7 5.7 5.7 5.8 5.8 5.9 5.9 6.1 6.1
9.2 9.6 9.6 9.6 9.7 9.4 9.2 9.6 8.6 8.3 8.6 8.3 8.0 7.7 7.3 7.0 6.8 6.6 6.2 6.0 6.1 6.4 6.2 6.4 6.5 6.2 6.1 6.0 6.1 6.0 5.8 5.7 5.8 5.9 5.9 5.8 5.9 5.9 6.0 5.8 5.8 5.8 5.8 5.9 5.8 5.9 5.9 6.0 6.1
9.5 9.4 9.5 9.6 9.8 9.9 9.9 9.3 9.5 9.3 8.7 8.4 8.4 8.1 7.6 7.2 7.0 6.6 6.4 6.2 6.5 6.6 6.5 6.4 6.5 6.4 6.3 6.2 6.2 6.1 6.1 6.1 6.0 6.0 6.0 5.9 6.0 6.1 6.1 5.9 5.9 5.9 5.9 5.9 5.9 5.9 5.9 6.0 6.0
9.6 9.6 9.6 9.7 9.6 9.6 9.6 8.9 9.0 9.4 9.3 8.6 8.6 8.2 7.9 7.6 7.1 6.8 6.6 6.8 6.7 6.7 6.6 6.4 6.3 6.4 6.4 6.4 6.5 6.5 6.3 6.2 6.2 6.2 6.1 6.0 5.9 5.9 5.9 6.0 5.9 5.9 6.0 6.0 5.9 5.9 6.0 6.1 6.1
Wind_Speed
11 14 6 5 5 4 2 2 5 10 8 12 6 11 12 12 12 6 17 14 10 16 19 17 14 14 15 16 16 15 14 14 12 11 9 8 6 6 6 6 6 6 7 8 9 8 7 9 9
13 3 5 5 5 1 4 5 12 10 10 12 8 6 10 15 11 15 14 13 14 15 17 18 13 13 16 16 15 14 13 12 11 9 8 7 6 6 6 6 5 7 7 8 9 9 9 9 8
12 5 7 5 6 3 1 8 10 10 5 4 6 6 7 10 6 10 20 20 16 5 17 21 13 13 16 14 14 12 12 11 10 8 7 6 6 6 6 6 6 6 6 7 8 8 8 9 8
4 5 5 5 10 4 4 4 11 10 8 3 1 12 10 9 5 15 20 20 15 11 19 19 14 14 15 13 14 13 12 10 9 7 7 6 7 7 6 7 6 6 5 7 7 7 7 8 8
7 6 5 4 7 3 6 6 2 2 5 8 4 11 10 5 10 17 20 18 17 14 19 17 13 13 13 12 12 11 10 10 9 9 8 6 7 7 7 6 6 5 6 6 6 5 6 6 5
6 4 4 8 3 4 5 2 3 3 4 6 5 10 11 9 15 15 17 15 13 11 20 18 13 14 12 10 10 9 9 9 8 7 7 5 7 6 6 7 5 5 4 4 3 2 3 5 5
5 9 5 7 3 4 2 1 2 7 9 6 1 16 9 13 17 11 16 11 8 10 18 15 15 13 10 9 10 8 8 9 9 10 8 7 7 6 6 6 6 5 3 2 2 1 2 3 5
6 7 5 5 6 2 4 3 1 4 10 9 5 4 14 14 18 17 17 18 15 8 11 8 12 12 14 14 10 10 9 11 11 9 8 8 8 7 7 7 7 4 2 1 1 2 2 2 6
7 6 6 9 9 0 3 6 4 4 7 3 4 8 19 19 15 15 12 12 10 4 8 14 14 13 10 11 12 11 10 11 12 9 7 11 14 10 10 11 7 3 1 2 3 4 7 8 9
8 5 7 6 9 4 6 6 9 7 7 7 8 7 17 18 16 15 13 14 13 11 9 5 11 8 13 8 13 12 12 12 11 8 9 15 1 6 10 9 6 3 3 4 4 7 10 12 6
8 7 10 8 7 9 5 4 2 5 6 7 12 13 17 16 14 12 13 12 10 16 7 8 3 9 9 12 10 5 9 10 11 5 7 3 7 7 11 12 10 9 11 5 4 2 6 10 9
6 2 4 6 3 3 3 7 4 6 3 12 9 15 17 17 14 13 12 16 8 7 9 10 4 7 6 10 10 12 10 10 8 10 10 5 8 4 5 7 9 2 10 4 6 7 4 10 15
3 11 4 2 1 4 2 3 2 5 10 9 11 14 15 16 15 15 8 13 11 11 6 12 9 7 6 6 6 2 5 8 10 11 10 2 6 4 3 2 5 6 3 6 3 6 3 6 9
9 11 1 2 3 4 7 5 10 14 6 10 11 13 13 14 21 11 8 10 13 11 8 10 10 9 9 5 4 4 10 4 6 9 10 3 9 3 4 4 3 2 3 2 1 2 2 4 7
8 11 5 8 4 4 6 8 13 8 7 11 12 11 11 10 10 14 16 12 10 10 12 6 12 9 9 8 7 6 9 7 8 7 8 6 6 3 6 3 2 6 9 1 3 3 5 4 6
8 10 2 9 5 5 9 7 13 3 10 11 13 11 10 8 12 12 9 11 9 11 9 11 10 13 12 8 9 9 4 8 10 6 12 9 6 4 5 7 2 4 1 1 3 2 5 3 3
9 4 7 1 7 5 10 4 11 11 14 14 13 14 12 10 7 8 12 9 9 11 9 10 7 11 12 9 8 7 8 10 6 8 6 11 7 6 10 4 6 5 4 3 1 2 8 6 2
7 10 6 9 8 6 8 8 18 15 20 13 14 13 14 16 12 14 11 13 17 11 12 11 7 8 11 9 5 7 10 8 9 6 6 10 9 7 7 7 2 2 2 5 1 4 5 4 5
8 11 6 10 2 5 9 8 14 17 17 15 15 16 16 17 15 12 12 13 15 13 12 9 8 6 9 8 8 5 7 8 6 6 4 5 6 4 6 9 5 5 6 2 4 4 3 6 2
9 13 0 5 3 7 9 11 12 15 17 17 18 16 13 11 16 14 14 13 12 15 15 11 11 11 11 9 8 6 3 6 5 7 10 7 6 7 8 7 3 4 7 3 4 3 4 5 2
12 14 6 1 5 10 13 11 11 15 15 17 17 19 18 17 17 16 11 14 13 14 14 15 14 14 12 11 8 6 4 2 5 6 5 8 11 8 8 5 5 4 3 3 4 5 6 3 4
13 6 5 5 10 3 25 2 14 11 15 18 19 18 19 17 15 16 17 16 15 13 14 14 15 16 13 12 11 8 8 8 6 7 6 1 7 9 10 7 8 3 5 5 5 6 5 4 5
8 3 10 7 12 8 8 6 7 14 13 14 15 21 20 19 19 18 17 17 15 13 14 14 12 14 13 13 10 10 10 7 8 5 2 4 2 6 9 8 4 5 7 2 3 3 4 5 6
9 12 17 16 9 5 5 13 10 7 5 1 5 13 20 19 20 16 15 16 14 14 12 14 16 13 14 14 13 11 11 9 4 9 6 5 8 7 9 11 7 5 6 6 6 5 6 6 6
10 18 7 7 8 5 16 10 3 2 3 3 4 8 14 19 15 17 18 15 14 15 13 13 15 14 16 15 14 13 11 10 7 7 9 7 5 5 9 9 5 7 6 6 6 5 5 6 5
12 13 6 11 9 2 13 5 5 6 3 4 2 8 13 16 15 15 16 15 15 15 14 13 15 15 16 16 14 12 12 9 9 10 9 8 7 3 3 7 6 9 8 6 5 6 7 8 6
16 7 14 13 12 8 6 9 7 4 5 5 8 11 13 15 16 17 17 15 16 15 15 14 14 14 16 17 13 12 12 12 11 9 9 8 5 6 5 3 5 7 7 7 6 7 6 6 7
13 15 12 8 4 10 3 9 5 11 8 8 9 13 14 15 16 15 14 13 13 15 14 14 13 14 14 16 15 14 14 14 12 9 9 9 8 8 6 4 8 7 8 8 6 7 7 6 6
9 12 12 16 11 7 7 5 5 9 9 8 10 12 15 16 15 14 13 13 15 15 15 15 14 15 14 15 14 14 14 15 14 13 12 11 10 9 9 9 9 7 8 7 7 9 9 8 8
7 15 12 6 10 9 10 6 13 8 9 9 9 12 13 15 16 14 12 14 13 14 14 14 13 14 14 14 13 15 14 14 15 14 14 12 11 11 10 10 11 11 10 9 10 11 11 10 10
Wind_Direction
196 217 246 253 257 213 161 33 160 95 78 75 71 50 71 47 26 91 124 124 125 105 128 131 131 122 122 118 117 118 116 117 122 126 124 110 106 105 101 91 87 82 96 107 107 106 96 97 100
265 280 238 265 255 88 349 128 68 70 76 91 97 148 84 68 66 121 126 132 152 137 146 133 133 139 125 120 121 122 121 125 122 122 119 115 113 107 101 96 97 99 100 102 103 106 107 106 107
265 305 271 297 311 63 259 83 83 92 124 141 105 26 24 77 104 129 120 147 135 171 131 120 133 129 124 127 125 128 123 124 128 129 124 125 118 114 111 108 112 110 108 101 97 99 104 106 103
269 199 263 273 30 343 83 199 108 134 119 40 110 96 99 66 105 121 139 140 133 161 114 123 137 140 135 136 134 129 127 126 129 129 130 133 130 119 122 127 118 117 114 100 100 97 99 106 108
231 253 218 76 85 187 146 83 80 82 104 122 279 88 81 97 121 139 147 151 152 137 123 132 145 142 143 141 131 128 133 129 131 130 133 135 130 131 131 128 119 124 110 108 106 110 109 114 117
258 256 268 80 105 153 166 122 291 108 95 98 160 124 73 126 121 149 152 143 149 148 135 135 147 152 149 144 132 132 135 134 129 129 136 136 132 135 130 134 128 121 118 118 108 120 108 110 133
310 305 7 342 77 208 168 160 2 55 241 144 102 93 121 154 133 161 141 146 102 168 115 152 157 152 152 148 135 136 136 137 139 132 135 142 136 141 141 135 140 135 149 138 126 50 42 102 149
292 275 293 24 8 22 195 153 297 87 287 79 293 152 157 147 150 176 149 159 156 160 124 126 154 171 166 153 146 144 139 136 137 131 142 157 159 164 162 174 155 159 190 179 93 331 288 178 185
263 274 347 19 10 319 127 203 176 264 201 67 78 26 136 145 162 155 160 134 121 106 149 186 155 176 118 145 140 146 145 146 150 150 172 196 204 174 163 101 126 152 185 303 314 291 275 258 229
289 27 347 5 321 354 185 147 161 200 152 141 118 106 125 157 166 163 166 151 161 172 197 235 157 162 134 145 149 166 160 165 155 184 194 231 271 47 57 117 145 201 225 247 262 276 274 261 283
354 357 349 357 357 302 263 146 225 208 211 261 146 149 151 164 154 171 161 173 186 163 154 121 181 113 157 134 138 170 160 203 145 193 240 248 171 161 217 156 172 196 199 209 211 246 285 283 230
285 1 334 356 350 261 156 187 238 94 232 260 108 150 161 165 161 185 188 169 152 139 184 155 173 133 147 136 167 194 175 208 161 174 231 161 240 111 295 57 133 147 156 191 240 138 291 300 320
329 338 4 18 136 246 259 164 280 284 167 96 123 150 169 159 166 190 196 146 170 165 196 152 130 161 173 176 217 224 204 167 180 166 208 217 268 132 179 51 309 151 192 153 216 140 178 295 294
348 306 55 226 148 226 228 202 207 162 164 126 145 160 169 174 162 180 147 160 176 177 193 146 173 162 166 159 167 215 242 171 186 183 136 254 302 87 230 189 246 206 167 269 220 228 176 292 293
295 291 219 204 203 217 204 238 225 256 174 157 159 170 166 173 164 169 168 178 188 184 180 160 156 162 168 178 170 189 264 175 225 159 118 209 249 151 293 187 236 241 115 177 211 185 245 229 282
265 252 253 182 175 181 232 303 201 168 162 196 172 170 169 163 171 157 169 163 184 163 185 156 187 165 155 177 167 196 165 219 230 181 176 187 218 275 227 253 25 72 171 296 164 207 215 265 224
190 300 346 64 177 202 206 233 153 182 197 210 194 169 164 169 192 168 161 178 159 160 187 156 211 170 149 165 190 139 187 239 209 215 215 156 207 214 267 256 217 91 255 174 318 169 273 193 279
341 315 329 298 162 200 235 200 204 184 208 197 199 183 167 192 183 179 186 163 168 159 178 155 202 142 161 163 217 190 175 227 221 202 203 141 227 204 248 259 189 323 153 240 15 327 306 317 222
297 294 318 301 113 265 247 256 173 181 210 195 217 195 197 170 188 187 186 174 163 163 168 173 181 156 175 168 192 205 199 215 208 232 145 154 252 219 202 272 159 225 269 37 318 260 284 296 120
257 260 111 194 212 232 254 248 226 200 201 215 201 216 210 180 162 182 191 185 187 173 172 171 179 178 193 192 196 194 194 190 268 227 171 231 208 221 231 258 327 266 308 175 257 270 288 252 250
238 280 163 270 253 237 287 263 269 213 199 200 219 209 214 183 188 192 201 191 191 180 187 173 174 190 197 196 200 194 206 193 190 219 215 200 225 225 230 190 284 330 288 260 210 225 247 318 246
275 294 279 262 272 108 256 244 294 179 198 199 204 214 215 201 210 166 203 190 189 181 186 188 176 180 198 202 187 171 210 206 201 221 192 9 227 209 190 218 225 219 291 356 249 215 280 255 298
306 263 287 260 266 259 356 332 229 255 192 185 211 201 217 197 211 182 205 178 187 184 181 188 171 174 201 188 231 184 231 185 188 224 140 231 193 245 259 217 234 219 239 86 274 264 234 265 283
299 253 235 235 262 65 260 260 84 198 7 314 185 206 195 218 191 190 198 168 184 177 185 183 175 183 190 190 212 213 192 254 194 186 197 227 205 209 211 243 209 226 251 231 256 232 231 260 317
238 255 241 258 214 223 221 229 111 357 38 338 276 187 191 188 187 183 175 175 182 173 186 183 181 182 196 199 197 208 218 222 247 207 200 210 254 210 159 196 220 231 223 257 273 205 266 225 256
218 280 296 292 322 151 190 198 75 18 89 97 134 155 166 179 176 183 171 175 185 181 185 188 178 189 194 198 203 197 202 219 225 205 251 212 223 239 102 163 219 222 248 224 227 239 230 212 216
256 223 285 300 264 238 127 77 40 117 98 131 134 152 166 177 171 183 175 183 183 183 184 190 177 193 198 197 195 195 198 226 219 235 205 246 261 276 212 142 241 241 238 232 235 243 216 256 224
261 292 288 214 260 248 72 285 112 292 146 126 146 161 165 175 176 180 174 184 185 183 181 191 182 189 196 201 197 205 206 210 228 235 229 239 247 230 264 220 209 243 237 232 232 257 237 230 251
182 229 241 279 299 309 241 69 40 107 134 149 155 157 164 171 179 179 176 182 183 185 184 189 187 184 195 200 196 205 208 210 214 223 224 225 232 244 245 242 233 237 232 236 237 247 269 246 237
293 279 213 222 220 260 300 162 246 130 130 147 148 154 163 168 173 179 179 177 182 187 187 191 194 194 197 195 199 200 208 213 212 218 227 221 224 226 227 239 228 223 236 227 217 242 259 216 236